TimeMST,TemperatureF,Dew PointF,Humidity,Sea Level PressureIn,VisibilityMPH,Wind Direction,Wind SpeedMPH,Gust SpeedMPH,PrecipitationIn,Events,Conditions,WindDirDegrees,DateUTC
12:53 AM,45.0,41.0,86,30.12,10.0,South,9.2,-,0.02,Rain,Light Rain,170,2012-12-05 07:53:00
1:53 AM,46.0,41.0,83,30.08,10.0,South,11.5,-,0.01,,Overcast,190,2012-12-05 08:53:00
2:53 AM,46.9,41.0,80,30.07,10.0,South,16.1,-,N/A,,Overcast,190,2012-12-05 09:53:00
3:53 AM,46.9,42.1,83,30.05,10.0,South,15.0,-,N/A,,Overcast,190,2012-12-05 10:53:00
4:53 AM,46.9,39.9,77,30.03,10.0,South,13.8,-,0.00,Rain,Light Rain,190,2012-12-05 11:53:00
5:53 AM,46.0,39.9,79,30.02,10.0,South,18.4,-,0.01,Rain,Light Rain,190,2012-12-05 12:53:00
7:53 AM,45.0,39.9,82,30.04,10.0,SSW,16.1,-,0.01,Rain,Light Rain,200,2012-12-05 14:53:00
8:53 AM,45.0,41.0,86,30.05,10.0,South,16.1,21.9,0.01,Rain,Light Rain,190,2012-12-05 15:53:00
9:53 AM,45.0,41.0,86,30.05,10.0,SSW,13.8,-,0.00,Rain,Light Rain,200,2012-12-05 16:53:00
10:06 AM,46.4,41.0,81,30.07,10.0,SSW,13.8,-,0.01,Rain,Light Rain,200,2012-12-05 17:06:00
10:53 AM,45.0,41.0,86,30.05,10.0,SSW,17.3,-,0.02,Rain,Light Rain,210,2012-12-05 17:53:00
11:53 AM,46.0,42.1,86,30.06,10.0,SW,19.6,26.5,0.01,,Overcast,220,2012-12-05 18:53:00
12:53 PM,46.9,42.1,83,30.04,10.0,SW,18.4,25.3,N/A,,Overcast,230,2012-12-05 19:53:00
1:53 PM,48.0,43.0,83,30.03,10.0,WSW,18.4,25.3,N/A,,Mostly Cloudy,240,2012-12-05 20:53:00
2:53 PM,48.0,43.0,83,30.01,10.0,SW,13.8,23.0,N/A,,Mostly Cloudy,230,2012-12-05 21:53:00
3:53 PM,46.9,42.1,83,30.03,10.0,SW,15.0,-,N/A,,Mostly Cloudy,220,2012-12-05 22:53:00
4:53 PM,46.4,41.0,81,30.05,10.0,SSW,18.4,-,N/A,,Scattered Clouds,210,2012-12-05 23:53:00
5:53 PM,46.0,39.9,79,30.05,10.0,SSW,13.8,-,N/A,,Mostly Cloudy,200,2012-12-06 00:53:00
6:53 PM,44.1,37.9,79,30.06,10.0,SSW,12.7,-,N/A,,Scattered Clouds,200,2012-12-06 01:53:00
6:59 PM,44.6,37.4,76,30.07,10.0,SSW,11.5,-,N/A,,Scattered Clouds,200,2012-12-06 01:59:00
7:53 PM,44.1,37.9,79,30.07,10.0,SSW,12.7,-,N/A,,Scattered Clouds,200,2012-12-06 02:53:00
8:53 PM,44.1,37.9,79,30.07,10.0,SSW,10.4,-,N/A,,Mostly Cloudy,200,2012-12-06 03:53:00
9:53 PM,42.1,37.0,82,30.07,10.0,SSW,10.4,-,N/A,,Partly Cloudy,200,2012-12-06 04:53:00
10:53 PM,42.1,36.0,79,30.07,10.0,SSW,11.5,-,N/A,,Clear,200,2012-12-06 05:53:00
11:53 PM,42.1,36.0,79,30.07,10.0,SSW,10.4,-,N/A,,Mostly Cloudy,200,2012-12-06 06:53:00